Hourly Data Report for October 31, 2014

All times are specified in Local Standard Time (LST). Add 1 hour to adjust for Daylight Saving Time where and when it is observed.

KUGAARUK CLIMATE
NUNAVUT

68°32'15.060" N
89°47'47.020" W
15.80 m
2303094
71407
NBB

Download Data

Hourly Data (October 2014)
Hourly Data Report for October 31, 2014
Temp Definition
°C
Dew Point Temp Definition
°C
Rel Hum Definition
%
Wind Dir Definition
10's deg

Wind Spd Definition
km/h
Visibility Definition
km
Stn Press Definition
kPa
Hmdx Definition


Wind Chill Definition


Weather Definition


TIME
00:00 -23.2 -25.6 81 24 10   102.06   -31 LegendNANA
01:00 -23.7 -26.3 79 25 15   102.06   -34 LegendNANA
02:00 -22.5 -24.8 81 25 15   102.10   -32 LegendNANA
03:00 -22.6 -25.1 79 26 13   102.10   -32 LegendNANA
04:00 -22.8 -25.1 81 23 9   102.09   -30 LegendNANA
05:00 -26.4 -29.2 77 6 5   102.11   -32 LegendNANA
06:00 -26.4 -29.2 77 12 1   102.10   -27 LegendNANA
07:00 -26.5 -29.3 77 5 2   102.11   -29 LegendNANA
08:00 -25.7 -28.3 79 16 3   102.10   -29 LegendNANA
09:00 -26.5 -29.3 77 7 4   102.07   -31 LegendNANA
10:00 -25.2 -27.5 81   0   102.11     LegendNANA
11:00 -25.8 -28.7 77 5 7   102.08   -32 LegendNANA
12:00 -25.3 -28.1 78 10 5   102.11   -30 LegendNANA
13:00 -22.8 -25.8 77 28 2   102.15   -25 LegendNANA
14:00 -25.4 -28.4 76 4 8   102.20   -33 LegendNANA
15:00 -26.2 -29.0 77 6 4   102.20   -30 LegendNANA
16:00 -26.3 -29.1 77 8 4   102.19   -30 LegendNANA
17:00 -26.8 -29.8 76 7 5   102.18   -32 LegendNANA
18:00 -26.2 -29.0 78 12 9   102.11   -34 LegendNANA
19:00 -26.3 -29.1 77 12 8   102.09   -34 LegendNANA
20:00 -26.1 -28.9 77 7 2   102.09   -28 LegendNANA
21:00 -26.7 -29.6 76 1 2   102.08   -29 LegendNANA
22:00 -26.8 -29.6 77 7 6   102.04   -33 LegendNANA
23:00 -27.3 -30.3 76 7 7   101.99   -34 LegendNANA

Notes on Data Quality.

Legend

  • E = Estimated
  • M = Missing
  • NA = Not Available
  • ‡ = Partner data that is not subject to review by the National Climate Archives
Date modified: